Dillon, MT

1:43 PM MDT on August 24, 2016 (GMT -0600)
Dillon

Weather History for KDLN - May, 2013

Change the Weather History Date:

Saturday, May 4, 2013

  Actual Average Record
Temperature  
Mean Temperature 47 °F 47 °F  
Max Temperature 56 °F 61 °F 85 °F (1966)
Min Temperature 38 °F 34 °F 22 °F (1982)
Degree Days  
Heating Degree Days 18    
Month to date heating degree days 87  
Since 1 July heating degree days 7182  
Cooling Degree Days 0    
Month to date cooling degree days 0  
Year to date cooling degree days 0  
Moisture  
Dew Point 33 °F    
Average Humidity 62    
Maximum Humidity 85    
Minimum Humidity 38    
Precipitation  
Precipitation 0.01 in 0.04 in 0.76 in (1975)
Month to date precipitation 0.03 0.17  
Year to date precipitation 0.57 2.29  
Snow  
Snow 0.00 in - - ()
Snow Depth 0.00 in    
Sea Level Pressure  
Sea Level Pressure 30.15 in    
Wind  
Wind Speed 16 mph (NE)    
Max Wind Speed 30 mph    
Max Gust Speed 36 mph    
Visibility 10 miles    
Events Rain    
T = Trace of Precipitation, MM = Missing Value Source: NWS Daily Summary

Daily Weather History Graph

Daily Weather History Graph

Search for Another Location

Airport or City:

Trip Planner

Search our weather history database for the weather conditions in past years. The results will help you decide how hot, cold, wet, or windy it might be!

Date:

Astronomy

May. 04, 2013 Rise Set
Actual Time 6:14 AM MDT 8:40 PM MDT
Civil Twilight 5:41 AM MDT 9:13 PM MDT
Nautical Twilight 4:59 AM MDT 9:55 PM MDT
Astronomical Twilight 4:13 AM MDT 10:42 PM MDT
Moon 3:29 AM MDT (5/4) 3:29 PM MDT (5/4)
Length of Visible Light 15h 32m
Length of Day
14h 26m
Waning Crescent, 26% of the Moon is Illuminated
May 4
Waning Crescent
May 9
New
May 17
First Quarter
May 24
Full
May 31
Last Quarter

Hourly Weather History & Observations

Time (MDT) Temp. Windchill Dew Point Humidity Pressure Visibility Wind Dir Wind Speed Gust Speed Precip Events Conditions
12:34 AM 39.2 °F 31.2 °F 35.6 °F 87% 30.21 in 10.0 mi NE 13.8 mph - N/A   Overcast
12:43 AM 39.2 °F 32.0 °F 35.6 °F 87% 30.21 in 10.0 mi NE 11.5 mph - 0.00 in Rain Light Rain
12:53 AM 39.9 °F 33.9 °F 35.1 °F 83% 30.15 in 10.0 mi NE 9.2 mph - 0.00 in   Overcast
1:43 AM 39.2 °F 32.0 °F 33.8 °F 81% 30.21 in 10.0 mi NE 11.5 mph - N/A   Overcast
1:53 AM 39.0 °F 31.8 °F 34.0 °F 82% 30.15 in 10.0 mi NE 11.5 mph - N/A   Overcast
2:38 AM 37.4 °F 29.8 °F 33.8 °F 87% 30.20 in 10.0 mi ENE 11.5 mph - N/A   Overcast
2:53 AM 37.9 °F 30.0 °F 34.0 °F 86% 30.14 in 10.0 mi ENE 12.7 mph - N/A   Overcast
3:53 AM 37.9 °F 31.5 °F 34.0 °F 86% 30.15 in 10.0 mi ENE 9.2 mph - N/A   Overcast
4:53 AM 37.9 °F 32.1 °F 34.0 °F 86% 30.16 in 10.0 mi ENE 8.1 mph - N/A   Overcast
5:53 AM 39.0 °F 31.4 °F 34.0 °F 82% 30.17 in 10.0 mi NNE 12.7 mph - N/A   Overcast
6:53 AM 39.0 °F 31.0 °F 34.0 °F 82% 30.19 in 10.0 mi NE 13.8 mph - N/A   Overcast
7:53 AM 41.0 °F 33.5 °F 35.1 °F 79% 30.19 in 10.0 mi NNE 13.8 mph - N/A   Overcast
8:53 AM 44.1 °F 35.4 °F 35.1 °F 71% 30.19 in 10.0 mi NNE 21.9 mph 27.6 mph 0.01 in   Overcast
9:26 AM 44.6 °F 36.6 °F 35.6 °F 71% 30.21 in 10.0 mi NE 19.6 mph 27.6 mph N/A   Overcast
9:36 AM 44.6 °F 36.4 °F 35.6 °F 71% 30.21 in 10.0 mi NNE 20.7 mph 26.5 mph N/A   Overcast
9:43 AM 46.4 °F 38.3 °F 35.6 °F 66% 30.21 in 10.0 mi NNE 23.0 mph 27.6 mph N/A   Overcast
9:53 AM 46.0 °F 38.0 °F 34.0 °F 63% 30.18 in 10.0 mi NNE 21.9 mph 28.8 mph N/A   Overcast
10:53 AM 48.0 °F - 33.1 °F 56% 30.17 in 10.0 mi NNE 21.9 mph 28.8 mph N/A   Overcast
11:53 AM 53.1 °F - 32.0 °F 45% 30.15 in 10.0 mi NNE 18.4 mph 34.5 mph N/A   Scattered Clouds
12:53 PM 55.0 °F - 30.9 °F 40% 30.13 in 10.0 mi NNE 20.7 mph 31.1 mph N/A   Partly Cloudy
1:53 PM 53.1 °F - 30.0 °F 41% 30.12 in 10.0 mi North 12.7 mph 25.3 mph N/A   Scattered Clouds
2:53 PM 53.1 °F - 30.0 °F 41% 30.11 in 10.0 mi NNE 19.6 mph 26.5 mph N/A   Overcast
3:53 PM 54.0 °F - 30.0 °F 40% 30.09 in 10.0 mi NNE 21.9 mph 27.6 mph N/A   Mostly Cloudy
4:53 PM 54.0 °F - 30.0 °F 40% 30.08 in 10.0 mi NNE 20.7 mph - N/A   Overcast
5:53 PM 52.0 °F - 30.9 °F 45% 30.09 in 10.0 mi NNE 26.5 mph 35.7 mph N/A   Overcast
6:53 PM 51.1 °F - 32.0 °F 48% 30.09 in 10.0 mi NNE 23.0 mph 29.9 mph N/A   Overcast
7:53 PM 48.9 °F - 33.1 °F 54% 30.10 in 10.0 mi NNE 24.2 mph 32.2 mph N/A   Mostly Cloudy
8:53 PM 46.0 °F 39.3 °F 33.1 °F 61% 30.10 in 10.0 mi NNE 16.1 mph - N/A   Overcast
9:53 PM 46.0 °F 39.6 °F 33.1 °F 61% 30.10 in 10.0 mi NNE 15.0 mph - N/A   Overcast
10:53 PM 44.1 °F 38.1 °F 33.1 °F 65% 30.10 in 10.0 mi NNE 11.5 mph - N/A   Overcast
11:53 PM 42.1 °F 40.2 °F 32.0 °F 67% 30.09 in 10.0 mi SE 3.5 mph - N/A   Mostly Cloudy